TimeEST,TemperatureF,Dew PointF,Humidity,Sea Level PressureIn,VisibilityMPH,Wind Direction,Wind SpeedMPH,Gust SpeedMPH,PrecipitationIn,Events,Conditions,WindDirDegrees,DateUTC
12:51 AM,48.0,45.0,89,29.93,10.0,WNW,9.2,-,N/A,,Clear,300,2013-02-20 05:51:00
1:51 AM,46.9,45.0,93,29.94,10.0,WNW,6.9,-,N/A,,Clear,300,2013-02-20 06:51:00
2:51 AM,46.9,43.0,86,29.94,10.0,WNW,6.9,-,N/A,,Clear,290,2013-02-20 07:51:00
3:51 AM,46.0,39.9,79,29.96,10.0,WNW,9.2,-,N/A,,Clear,290,2013-02-20 08:51:00
4:51 AM,45.0,39.0,80,29.98,10.0,WNW,9.2,-,N/A,,Clear,300,2013-02-20 09:51:00
5:51 AM,44.1,33.1,65,30.01,10.0,WNW,9.2,-,N/A,,Clear,300,2013-02-20 10:51:00
6:51 AM,43.0,30.9,62,30.03,10.0,NW,11.5,-,N/A,,Clear,310,2013-02-20 11:51:00
7:51 AM,44.1,27.0,51,30.06,10.0,NW,10.4,18.4,N/A,,Clear,310,2013-02-20 12:51:00
8:51 AM,45.0,24.1,44,30.07,10.0,NW,12.7,21.9,N/A,,Clear,310,2013-02-20 13:51:00
9:51 AM,46.0,24.1,42,30.06,10.0,NW,9.2,17.3,N/A,,Clear,310,2013-02-20 14:51:00
10:51 AM,46.9,21.9,37,30.06,10.0,NW,11.5,19.6,N/A,,Clear,310,2013-02-20 15:51:00
11:51 AM,46.9,23.0,39,30.06,10.0,WNW,10.4,18.4,N/A,,Clear,300,2013-02-20 16:51:00
12:51 PM,50.0,21.9,33,30.03,10.0,WNW,10.4,17.3,N/A,,Clear,290,2013-02-20 17:51:00
1:51 PM,50.0,26.1,39,30.02,10.0,West,9.2,17.3,N/A,,Clear,280,2013-02-20 18:51:00
2:51 PM,50.0,24.1,36,30.01,10.0,West,11.5,17.3,N/A,,Clear,280,2013-02-20 19:51:00
3:51 PM,50.0,24.1,36,30.01,10.0,West,6.9,-,N/A,,Clear,270,2013-02-20 20:51:00
4:51 PM,48.9,27.0,43,30.01,10.0,WNW,6.9,-,N/A,,Clear,290,2013-02-20 21:51:00
5:51 PM,46.9,30.9,54,30.03,10.0,West,8.1,-,N/A,,Clear,280,2013-02-20 22:51:00
6:51 PM,46.0,32.0,58,30.06,10.0,WNW,5.8,-,N/A,,Clear,300,2013-02-20 23:51:00
7:51 PM,46.9,32.0,56,30.07,10.0,WNW,5.8,-,N/A,,Clear,300,2013-02-21 00:51:00
8:51 PM,46.0,33.1,61,30.09,10.0,NW,4.6,-,N/A,,Clear,310,2013-02-21 01:51:00
9:51 PM,44.1,33.1,65,30.11,10.0,WNW,3.5,-,N/A,,Clear,290,2013-02-21 02:51:00
10:51 PM,45.0,33.1,63,30.12,10.0,NW,3.5,-,N/A,,Clear,310,2013-02-21 03:51:00
11:51 PM,42.1,32.0,67,30.10,10.0,Calm,Calm,-,N/A,,Clear,0,2013-02-21 04:51:00